Location: Unspecified
(0.0000°N, 0.0000°E)
Time: 06:58:16
(UTC+00:00)

S-56A Canister/Altair - Pass Details

Date: 29 May 2024
Orbit: 637 x 2489 km, 38.9° (Epoch: 22 June)

Event Time Altitude Azimuth Distance (km) Brightness Sun altitude
Rises 00:51:16 0° 231° (SW) 5,299 - -64.7°
Reaches altitude 10° 00:54:23 10° 231° (SW) 4,500 - -64.3°
Maximum altitude 01:07:39 82° 317° (NW) 2,443 - -62.4°
Exits shadow 01:15:11 39° 40° (NE) 3,354 10.7 -61.2°
Drops below altitude 10° 01:22:50 10° 45° (NE) 5,058 12.0 -59.9°
Sets 01:26:36 0° 46° (NE) 5,963 12.5 -59.3°
